Location: ????????
(60.4333°N, 46.4710°E)
Time: 18:33:39
(UTC+00:00)

Cosmos 1656 Rocket - Visible Passes

Search period start: 16 April 2021 00:00
Search period end: 26 April 2021 00:00
Orbit: 796 x 846 km, 71.1° (Epoch: 15 April)

Date Brightness Start Highest point End Pass type
(mag) Time Alt. Az. Time Alt. Az. Time Alt. Az.
17 Apr 6.3 00:39:06 10° SE 00:42:02 15° E 00:44:59 10° ENE visible
18 Apr 6.3 00:18:29 10° ESE 00:20:52 13° E 00:23:15 10° ENE visible
18 Apr 6.4 23:58:07 10° ESE 23:59:42 11° E 00:01:17 10° ENE visible
23 Apr 5.4 00:12:19 10° SSE 00:16:55 29° ESE 00:21:33 10° NE visible
23 Apr 5.5 23:51:18 10° SSE 23:55:41 26° ESE 00:00:06 10° NE visible
24 Apr 5.6 23:30:18 10° SSE 23:34:27 23° ESE 23:38:39 10° NE visible
25 Apr 5.7 23:09:22 10° SSE 23:13:14 20° ESE 23:17:09 10° ENE visible
